Regional Weather Roundup
Issued by NWS

Home | Current Version | Previous Version | Text Only | Print | Product List | Glossary On
Versions: 1 2 3 4 5 6 7 8 9 10 11 12 13 14 15 16 17 18 19 20 21 22 23 24 25 26 27
000
ASUS43 KMPX 091910
RWRMN
WEATHER ROUNDUP FOR MINNESOTA
NATIONAL WEATHER SERVICE TWIN CITIES/CHANHASSEN MN
200 PM CDT SUN MAY 09 2021


NOTE: "FAIR" INDICATES FEW OR NO CLOUDS BELOW 12,000 FEET WITH NO
SIGNIFICANT WEATHER AND/OR OBSTRUCTIONS TO VISIBILITY. N/A MEANS
CURRENT SKY AND/OR WEATHER CONDITIONS ARE NOT AVAILABLE.

MNZ060>063-068>070-092000-
   Twin Cities Metro

CITY           SKY/WX    TMP DP  RH WIND       PRES   REMARKS
TWIN CITIES    PTSUNNY   59  29  31 NW12      30.01S
ST PAUL        MOSUNNY   59  29  31 VRB7G17   30.01F
CRYSTAL        MOSUNNY   61  26  26 N12G18    30.00F
BLAINE         MOSUNNY   61  27  27 N12G17    30.01F
LAKEVILLE      MOSUNNY   61  21  21 NW9G18    30.00S
EDEN PRAIRIE   MOSUNNY   61  32  33 N10G23    29.99F
SOUTH ST PAUL  MOSUNNY   60  26  27 N6        30.00S
$$
MNZ001>005-007-008-013>017-022>024-027-028-092000-
   Northwest Minnesota

CITY           SKY/WX    TMP DP  RH WIND       PRES   REMARKS
BEMIDJI        SUNNY     51  23  33 N14       30.09F
HALLOCK        SUNNY     55  21  26 NE15G28   30.16F
ROSEAU           N/A     54 N/A N/A N18G24    30.17F
WARROAD        PTSUNNY   45  32  61 E16G22    30.19F
THIEF RVR FALL MOSUNNY   52  23  32 NE15      30.14F
CROOKSTON      SUNNY     54  21  28 N13G22    30.12F
FOSSTON        SUNNY     52  18  25 NE14G20   30.10F
DETROIT LAKES  MOSUNNY   55  19  24 N14       30.07S
MOORHEAD       MOSUNNY   61   0   8 N16G24    30.09F
PARK RAPIDS    MOSUNNY   55  20  25 NE10G23   30.05F
MAHNOMEN       FAIR      54  25  31 NE9G22    30.08F
$$
MNZ006-009>011-018-025>026-092000-
   North Central Minnesota

CITY           SKY/WX    TMP DP  RH WIND       PRES   REMARKS
BAUDETTE       PTSUNNY   50  27  40 N15       30.16F
FLAG ISLAND    CLOUDY    43  25  49 NE13G20   30.19F
INTL FALLS     CLOUDY    47  22  37 NE10G21   30.14F
WASKISH        PTSUNNY   50  23  34 N14G20    30.12S
BIG FORK       PTSUNNY   50  23  34 N9G20     30.14S
LONGVILLE      MOSUNNY   54  25  32 N6        30.06F
GRAND RAPIDS   CLOUDY    50  23  34 NE8       30.09S
CRANE LAKE     CLOUDY    45  21  39 N9G16     30.15S
ORR            CLOUDY    48  19  32 NW5       30.09S
COOK           CLOUDY    46  25  42 NE6       30.09F
WALKER         PTCLDY    52  25  34 N10       30.08R
$$
MNZ012-019>021-037-092000-
   Northeast Minnesota

CITY           SKY/WX    TMP DP  RH WIND       PRES   REMARKS
DULUTH         PTSUNNY   46  25  43 E17G23    30.08S
ELY            CLOUDY    45  23  42 NE7       30.09S
HIBBING        CLOUDY    48  23  37 N9        30.07F
DULUTH HARBOR  CLOUDY    43  34  70 NE16      30.12S
TWO HARBORS    CLOUDY    43  27  52 NE7       30.10S
SILVER BAY     CLOUDY    39  27  60 NE5       30.11S
GRAND MARAIS     N/A     39  29  67 CALM      30.13F
G MARAIS ARPRT CLOUDY    36  27  69 SE5       30.09R
$$
MNZ029>031-032-039>041-046>048-054>057-064-092000-
   West Central Minnesota

CITY           SKY/WX    TMP DP  RH WIND       PRES   REMARKS
FERGUS FALLS   MOSUNNY   57  25  28 NE7       30.02F
WHEATON        MOSUNNY   59  18  20 N8        30.07F
MORRIS         SUNNY     61   9  12 NW10      30.05F
ALEXANDRIA     MOSUNNY   57  20  23 N16G22    30.05F
ELBOW LAKE     FAIR      55  24  29 N7        30.06S
WADENA         MOSUNNY   57  27  30 NE6G16    30.05S
GLENWOOD       MOSUNNY   57  21  24 N12G17    30.05S
APPLETON       SUNNY     63  16  16 NW10G17   30.04S
BENSON         SUNNY     61  21  21 CALM      30.05F
ORTONVILLE     SUNNY     61  23  23 NW14G22   30.04F
MADISON        SUNNY     63  23  22 NW10G18   30.05F
WILLMAR        FAIR      61  21  21 N16       30.06F
$$
MNZ033>034-036-042>043-049>051-058-059-092000-
   Central Minnesota

CITY           SKY/WX    TMP DP  RH WIND       PRES   REMARKS
ST CLOUD       SUNNY     57  21  24 N13G23    30.03F
SAUK CENTRE    FAIR      56  22  26 NE10      30.05S
PAYNESVILLE    MOSUNNY   57  25  28 N6        30.04S
AITKIN         MOSUNNY   54  19  26 N15       30.05S
PINE RIVER     MOSUNNY   54  25  32 N12       30.09S
BRAINERD       MOSUNNY   58  19  22 N13G24    30.05F
STAPLES        MOSUNNY   57  18  21 N8G17     30.05S
LONG PRAIRIE   FAIR      55  25  30 NE10      30.05F
LITTLE FALLS   MOSUNNY   54  16  22 N3        30.04F
CAMP RIPLEY    FAIR      57  25  28 N14       30.05F
LITCHFIELD     SUNNY     61  28  29 N13       30.03F
BUFFALO        MOSUNNY   59  22  24 MISG      30.03F
MAPLE LAKE     MOSUNNY   58  27  30 N5        30.03F
HUTCHINSON     SUNNY     59  25  27 NW7G20    30.03F
$$
MNZ037-044-045-052-053-092000-
   East Central Minnesota

CITY           SKY/WX    TMP DP  RH WIND       PRES   REMARKS
PRINCETON      SUNNY     59  21  23 SW3G16    30.02F
MORA           SUNNY     55  27  33 NE8       30.06R
CAMBRIDGE      SUNNY     61  36  39 N9G16     30.02S
RUSH CITY      MOSUNNY   56  28  34 N6G17     30.03S
MOOSE LAKE     PTSUNNY   54  28  37 NE5       30.04F
HINCKLEY       PTCLDY    54  27  35 NE13G20   30.05S
CLOQUET        CLOUDY    46  25  42 E9G16     30.06S
MCGREGOR       CLOUDY    54  25  32 N8G18     30.05
$$
MNZ071>073-080-081-089-090-097-098-092000-
   Southwest Minnesota

CITY           SKY/WX    TMP DP  RH WIND       PRES   REMARKS
MONTEVIDEO     SUNNY     63  16  16 N14       30.04F
GRANITE FALLS  SUNNY     63  28  26 NW6G21    30.05S
CANBY          MOSUNNY   60  26  27 NW14G20   30.06S
MARSHALL       MOSUNNY   59  25  27 N5        30.04F
REDWOOD FALLS  MOSUNNY   63  24  22 N12G17    30.02S
OLIVIA         SUNNY     61  25  25 N13G18    30.02F
PIPESTONE        N/A     57  27  30 N3        30.04F
WINDOM         PTSUNNY   61  25  25 NW16      30.02S
WORTHINGTON    PTSUNNY   57  26  30 VRB3      30.05S
JACKSON        PTSUNNY   59  25  27 VRB6G20   30.03S
TRACY          MOSUNNY   62  16  16 N8        30.03S
SLAYTON        MOSUNNY   58  22  25 NW10      30.04F
$$
MNZ065>067-074>077-082>085-091>093-092000-
   South Central Minnesota

CITY           SKY/WX    TMP DP  RH WIND       PRES   REMARKS
MANKATO        MOSUNNY   60  24  25 W9G22     30.00F
NEW ULM        MOSUNNY   61  25  25 W6        30.01S
ST JAMES       PTSUNNY   61  21  21 W9G18     30.01S
FAIRMONT       PTSUNNY   61  23  23 NW15      30.02S
GLENCOE        MOSUNNY   59  26  28 N12       30.01S
FARIBAULT      MOSUNNY   63  25  23 N8G18     30.00S
OWATONNA       MOSUNNY   63  28  27 N16       29.99S
WASECA         MOSUNNY   63  23  22 NW8       30.01S
ALBERT LEA     MOSUNNY   63  27  25 NW5       29.98F
$$
MNZ078>079-086>088-094>096-092000-
   Southeast Minnesota

CITY           SKY/WX    TMP DP  RH WIND       PRES   REMARKS
ROCHESTER      PTSUNNY   63  28  26 NW10      29.97F
RED WING       MOSUNNY   63  21  20 N10       29.97F
STANTON        MOSUNNY   61  27  27 N6        29.98S
DODGE CENTER   MOSUNNY   59  21  23 NW6G21    29.98S
WINONA         PTSUNNY   61  32  33 N12G18    29.96F
AUSTIN         PTSUNNY   61  28  29 NW9       29.98F
PRESTON        MOSUNNY   58  28  31 N10       29.98F
$$
ABBREVIATIONS USED IN REMARKS
   TC - TEMPERATURES IN CELSIUS
  WCI - WIND CHILL INDEX
   HX - HEAT INDEX
  VSB - VISIBILITY
$$



USA.gov is the U.S. government's official web portal to all federal, state and local government web resources and services.